Location: Unspecified
(0.0000°N, 0.0000°E)
Time: 02:34:39
(UTC+00:00)

A-11 Canister half - All Passes

Search period start: 29 July 2014 00:00
Search period end: 08 August 2014 00:00
Orbit: 1517 x 1683 km, 47.2° (Epoch: 26 July)

Date Brightness Start Highest point End Pass type
(mag) Time Alt. Az. Time Alt. Az. Time Alt. Az.
29 Jul - 01:12:43 10° NNW 01:22:00 48° NE 01:30:57 10° ESE night (unlit)
29 Jul - 03:18:14 10° WNW 03:26:42 36° SW 03:35:01 10° SSE visible
29 Jul - 12:00:49 10° S 12:07:14 20° SE 12:13:44 10° E daylight
29 Jul - 14:02:30 10° SW 14:12:12 84° NW 14:22:13 10° NE daylight
29 Jul - 16:11:54 10° W 16:17:32 17° NW 16:23:16 10° N daylight
30 Jul - 00:49:57 10° NNW 00:59:06 44° NE 01:07:57 10° ESE night (unlit)
30 Jul - 02:55:07 10° WNW 03:03:50 39° SW 03:12:22 10° SSE visible
30 Jul - 11:38:26 10° S 11:44:18 18° SE 11:50:15 10° E daylight
30 Jul - 13:39:39 10° SW 13:49:19 90° NW 13:59:19 10° NE daylight
30 Jul - 15:48:23 10° W 15:54:33 18° NW 16:00:51 10° N daylight
31 Jul - 00:27:12 10° NNW 00:36:13 41° NE 00:44:55 10° ESE visible
31 Jul - 02:32:01 10° WNW 02:40:58 43° SW 02:49:41 10° SSE visible
31 Jul - 11:16:08 10° SSE 11:21:22 16° SE 11:26:39 10° E daylight
31 Jul - 13:16:48 10° SW 13:26:26 84° SE 13:36:24 10° NE daylight
31 Jul - 15:24:58 10° W 15:31:36 20° NW 15:38:23 10° N daylight
01 Aug - 00:04:29 10° NNW 00:13:19 37° NE 00:21:52 10° ESE visible
01 Aug - 02:08:57 10° WNW 02:18:05 47° SW 02:27:00 10° SSE night (unlit)
01 Aug - 10:53:57 10° SSE 10:58:25 14° SE 11:02:55 10° ESE daylight
01 Aug - 12:53:59 10° SW 13:03:34 78° SE 13:13:28 10° NE daylight
01 Aug - 15:01:38 10° W 15:08:39 22° NW 15:15:51 10° N daylight
01 Aug - 23:41:47 10° NNW 23:50:25 34° NE 23:58:46 10° ESE visible
02 Aug - 01:45:54 10° NW 01:55:13 51° SW 02:04:17 10° SSE night (unlit)
02 Aug - 10:31:59 10° SSE 10:35:28 12° SE 10:38:58 10° ESE daylight
02 Aug - 12:31:11 10° SSW 12:40:41 72° SE 12:50:31 10° NE daylight
02 Aug - 14:38:20 10° W 14:45:42 24° NW 14:53:17 10° N daylight
02 Aug - 23:19:06 10° N 23:27:30 31° NE 23:35:39 10° ESE visible
03 Aug - 01:22:52 10° NW 01:32:21 56° SW 01:41:33 10° SSE night (unlit)
03 Aug - 10:10:32 10° SSE 10:12:30 11° SE 10:14:29 10° ESE daylight
03 Aug - 12:08:24 10° SSW 12:17:49 66° SE 12:27:33 10° NE daylight
03 Aug - 14:15:06 10° W 14:22:46 27° NW 14:30:40 10° N daylight
03 Aug - 22:56:26 10° N 23:04:35 29° NE 23:12:30 10° ESE visible
04 Aug - 00:59:52 10° NW 01:09:29 61° SW 01:18:48 10° SSE night (unlit)
04 Aug - 11:45:38 10° SSW 11:54:57 61° SE 12:04:34 10° NE daylight
04 Aug - 13:51:54 10° WSW 13:59:51 29° NW 14:08:02 10° N daylight
04 Aug - 22:33:48 10° N 22:41:40 26° NE 22:49:18 10° E visible
05 Aug - 00:36:53 10° NW 00:46:37 67° SW 00:56:02 10° SSE night (unlit)
05 Aug - 02:49:51 10° WSW 02:51:56 11° SW 02:53:59 10° SSW night (unlit)
05 Aug - 11:22:53 10° SSW 11:32:05 56° SE 11:41:34 10° NE daylight
05 Aug - 13:28:45 10° WSW 13:36:56 32° NW 13:45:22 10° N daylight
05 Aug - 22:11:12 10° N 22:18:44 24° NE 22:26:04 10° E visible
06 Aug - 00:13:55 10° NW 00:23:45 72° SW 00:33:15 10° SSE night (unlit)
06 Aug - 02:25:25 10° WSW 02:28:58 12° SW 02:32:29 10° SSW night (unlit)
06 Aug - 11:00:09 10° SSW 11:09:13 51° SE 11:18:32 10° ENE daylight
06 Aug - 13:05:38 10° WSW 13:14:01 35° NW 13:22:41 10° NNE daylight
06 Aug - 21:48:38 10° N 21:55:47 22° NE 22:02:46 10° E visible
06 Aug - 23:50:58 10° NW 00:00:52 78° SW 00:10:26 10° SE visible
07 Aug - 02:01:29 10° WSW 02:06:00 14° SW 02:10:30 10° SSW night (unlit)
07 Aug - 10:37:26 10° SSW 10:46:20 47° SE 10:55:29 10° ENE daylight
07 Aug - 12:42:33 10° WSW 12:51:07 38° NW 12:59:59 10° NNE daylight
07 Aug - 21:26:06 10° N 21:32:50 20° NE 21:39:25 10° E visible
07 Aug - 23:28:03 10° NW 23:38:00 84° SW 23:47:37 10° SE visible
